| time (UTC) | temp F | wind direction | speed MPH | gust MPH | rain 1hr in | rain 24hr in | rain mn in | humidity % | barometer mb |
| 20260508033037 | 49 | 81 | 1.0 | 3.0 | 0.00 | 0.55 | 0.00 | 90 | 1002.4 |
| 20260508031538 | 50 | 0 | 0.0 | 2.0 | 0.00 | 0.55 | 0.00 | 89 | 1002.2 |
| 20260508030039 | 50 | 192 | 3.0 | 12.0 | 0.00 | 0.55 | 0.00 | 87 | 1002.0 |
| 20260508024530 | 51 | 0 | 1.0 | 8.0 | 0.00 | 0.55 | 0.55 | 86 | 1002.0 |
| 20260508023041 | 51 | 277 | 4.0 | 18.0 | 0.00 | 0.55 | 0.55 | 85 | 1001.9 |
| 20260508021535 | 51 | 292 | 9.0 | 16.0 | 0.00 | 0.55 | 0.55 | 87 | 1002.1 |
| 20260508020034 | 51 | 201 | 8.0 | 18.0 | 0.00 | 0.55 | 0.55 | 89 | 1002.1 |
| 20260508014534 | 51 | 215 | 2.0 | 10.0 | 0.00 | 0.55 | 0.55 | 90 | 1002.3 |
| 20260508013032 | 51 | 0 | 0.0 | 6.0 | 0.00 | 0.55 | 0.55 | 90 | 1002.1 |
| 20260508011534 | 51 | 280 | 3.0 | 14.0 | 0.00 | 0.55 | 0.55 | 90 | 1002.1 |
| 20260508010040 | 51 | 273 | 3.0 | 8.0 | 0.00 | 0.55 | 0.55 | 91 | 1002.3 |
| 20260508004534 | 51 | 0 | 5.0 | 13.0 | 0.00 | 0.55 | 0.55 | 93 | 1002.3 |
| 20260508003032 | 52 | 196 | 7.0 | 16.0 | 0.00 | 0.55 | 0.55 | 93 | 1002.2 |
| 20260508001535 | 51 | 261 | 1.0 | 8.0 | 0.00 | 0.55 | 0.55 | 96 | 1002.2 |
| 20260508000033 | 51 | 0 | 3.0 | 8.0 | 0.00 | 0.55 | 0.55 | 96 | 1001.9 |
| 20260507234537 | 51 | 0 | 0.0 | 0.0 | 0.00 | 0.55 | 0.55 | 96 | 1001.6 |
| 20260507233034 | 51 | 0 | 0.0 | 0.0 | 0.00 | 0.55 | 0.55 | 96 | 1001.7 |
| 20260507231534 | 51 | 0 | 0.0 | 0.0 | 0.00 | 0.55 | 0.55 | 96 | 1001.5 |
| 20260507230035 | 51 | 0 | 0.0 | 4.0 | 0.00 | 0.55 | 0.55 | 94 | 1001.5 |
| 20260507224550 | 53 | 0 | 0.0 | 0.0 | 0.00 | 0.55 | 0.55 | 94 | 1001.4 |
| 20260507223034 | 54 | 0 | 0.0 | 1.0 | 0.00 | 0.55 | 0.55 | 95 | 1001.6 |
| 20260507221538 | 54 | 0 | 0.0 | 3.0 | 0.00 | 0.55 | 0.55 | 95 | 1001.5 |
| 20260507220038 | 54 | 0 | 0.0 | 4.0 | 0.00 | 0.55 | 0.55 | 96 | 1001.5 |
| 20260507214538 | 54 | 0 | 0.0 | 2.0 | 0.00 | 0.55 | 0.55 | 96 | 1001.5 |
| 20260507213036 | 53 | 0 | 0.0 | 0.0 | 0.01 | 0.55 | 0.55 | 96 | 1001.5 |
| 20260507211535 | 52 | 0 | 0.0 | 2.0 | 0.03 | 0.55 | 0.55 | 96 | 1001.8 |
| 20260507210058 | 52 | 168 | 3.0 | 8.0 | 0.10 | 0.55 | 0.55 | 95 | 1001.8 |
| 20260507204536 | 52 | 338 | 1.0 | 4.0 | 0.15 | 0.55 | 0.55 | 96 | 1001.5 |
| 20260507203032 | 52 | 0 | 0.0 | 3.0 | 0.18 | 0.54 | 0.54 | 94 | 1001.9 |
| 20260507201536 | 52 | 0 | 0.0 | 1.0 | 0.20 | 0.51 | 0.51 | 95 | 1002.3 |
| 20260507200048 | 53 | 0 | 0.0 | 2.0 | 0.19 | 0.45 | 0.45 | 94 | 1002.6 |
| 20260507194533 | 53 | 60 | 1.0 | 3.0 | 0.18 | 0.39 | 0.39 | 93 | 1003.8 |
| 20260507193100 | 54 | 0 | 0.0 | 3.0 | 0.23 | 0.36 | 0.36 | 93 | 1003.7 |
| 20260507191534 | 54 | 90 | 0.0 | 11.0 | 0.27 | 0.31 | 0.31 | 92 | 1003.7 |
| 20260507190038 | 56 | 185 | 1.0 | 5.0 | 0.25 | 0.25 | 0.25 | 93 | 1003.9 |
| 20260507184531 | 57 | 171 | 3.0 | 11.0 | 0.20 | 0.20 | 0.20 | 92 | 1003.9 |
| 20260507183038 | 57 | 281 | 2.0 | 10.0 | 0.11 | 0.11 | 0.11 | 91 | 1004.2 |
| 20260507181534 | 59 | 188 | 3.0 | 17.0 | 0.03 | 0.03 | 0.03 | 87 | 1004.0 |
| 20260507180030 | 60 | 217 | 6.0 | 16.0 | 0.00 | 0.00 | 0.00 | 84 | 1003.9 |
| 20260507174532 | 60 | 234 | 4.0 | 14.0 | 0.00 | 0.00 | 0.00 | 83 | 1003.7 |
| 20260507173032 | 61 | 250 | 5.0 | 14.0 | 0.00 | 0.00 | 0.00 | 80 | 1003.8 |
| 20260507171531 | 61 | 250 | 10.0 | 22.0 | 0.00 | 0.00 | 0.00 | 79 | 1003.9 |
| 20260507170035 | 61 | 187 | 7.0 | 16.0 | 0.00 | 0.00 | 0.00 | 79 | 1004.2 |
| 20260507164533 | 61 | 252 | 10.0 | 28.0 | 0.00 | 0.00 | 0.00 | 79 | 1004.3 |
| 20260507163036 | 62 | 217 | 15.0 | 28.0 | 0.00 | 0.00 | 0.00 | 79 | 1004.6 |
| 20260507161533 | 62 | 197 | 11.0 | 24.0 | 0.00 | 0.00 | 0.00 | 77 | 1005.1 |
| 20260507160055 | 62 | 192 | 7.0 | 18.0 | 0.00 | 0.00 | 0.00 | 78 | 1005.3 |
| 20260507154535 | 62 | 274 | 13.0 | 25.0 | 0.00 | 0.00 | 0.00 | 78 | 1005.6 |
| 20260507153034 | 61 | 204 | 7.0 | 25.0 | 0.00 | 0.00 | 0.00 | 78 | 1005.7 |
| 20260507151532 | 61 | 244 | 6.0 | 26.0 | 0.00 | 0.00 | 0.00 | 79 | 1006.0 |
| 20260507150034 | 61 | 190 | 14.0 | 32.0 | 0.00 | 0.00 | 0.00 | 79 | 1006.2 |
| 20260507144544 | 61 | 174 | 18.0 | 30.0 | 0.00 | 0.00 | 0.00 | 79 | 1006.5 |
| 20260507143034 | 61 | 199 | 11.0 | 22.0 | 0.00 | 0.00 | 0.00 | 80 | 1006.9 |
| 20260507141531 | 61 | 167 | 15.0 | 32.0 | 0.00 | 0.00 | 0.00 | 80 | 1007.1 |
| 20260507140034 | 61 | 195 | 15.0 | 25.0 | 0.00 | 0.00 | 0.00 | 79 | 1007.3 |
| 20260507134535 | 61 | 193 | 15.0 | 33.0 | 0.00 | 0.00 | 0.00 | 79 | 1007.4 |
| 20260507133034 | 62 | 185 | 23.0 | 38.0 | 0.00 | 0.00 | 0.00 | 78 | 1007.4 |
| 20260507131533 | 62 | 173 | 17.0 | 33.0 | 0.00 | 0.00 | 0.00 | 79 | 1007.4 |
| 20260507130040 | 61 | 208 | 9.0 | 21.0 | 0.00 | 0.00 | 0.00 | 79 | 1007.5 |
| 20260507124531 | 61 | 200 | 10.0 | 17.0 | 0.00 | 0.00 | 0.00 | 80 | 1007.7 |
| 20260507123040 | 60 | 221 | 8.0 | 22.0 | 0.00 | 0.00 | 0.00 | 82 | 1008.2 |
| 20260507121537 | 59 | 207 | 9.0 | 26.0 | 0.00 | 0.00 | 0.00 | 82 | 1008.5 |
| 20260507120030 | 59 | 233 | 11.0 | 25.0 | 0.00 | 0.00 | 0.00 | 83 | 1009.0 |
| 20260507114531 | 60 | 187 | 18.0 | 32.0 | 0.00 | 0.00 | 0.00 | 82 | 1009.5 |
| 20260507113033 | 59 | 186 | 9.0 | 19.0 | 0.00 | 0.00 | 0.00 | 83 | 1009.5 |
| 20260507111537 | 59 | 209 | 5.0 | 14.0 | 0.00 | 0.00 | 0.00 | 83 | 1010.0 |
| 20260507110034 | 58 | 223 | 11.0 | 23.0 | 0.00 | 0.00 | 0.00 | 85 | 1009.8 |
| 20260507104532 | 58 | 217 | 3.0 | 18.0 | 0.00 | 0.00 | 0.00 | 85 | 1009.7 |
| 20260507103035 | 57 | 184 | 8.0 | 16.0 | 0.00 | 0.00 | 0.00 | 88 | 1010.6 |
| 20260507101533 | 54 | 225 | 2.0 | 6.0 | 0.00 | 0.00 | 0.00 | 86 | 1010.4 |
| 20260507100035 | 57 | 119 | 3.0 | 13.0 | 0.00 | 0.00 | 0.00 | 85 | 1010.8 |
| 20260507094534 | 57 | 234 | 1.0 | 11.0 | 0.00 | 0.00 | 0.00 | 88 | 1011.1 |
| 20260507093040 | 54 | 0 | 1.0 | 4.0 | 0.00 | 0.00 | 0.00 | 89 | 1011.6 |
| 20260507091538 | 54 | 18 | 0.0 | 2.0 | 0.00 | 0.00 | 0.00 | 88 | 1011.4 |
| 20260507090031 | 54 | 0 | 0.0 | 6.0 | 0.00 | 0.00 | 0.00 | 89 | 1011.4 |
| 20260507084534 | 53 | 12 | 0.0 | 4.0 | 0.00 | 0.00 | 0.00 | 88 | 1010.9 |
| 20260507083039 | 53 | 0 | 1.0 | 3.0 | 0.00 | 0.00 | 0.00 | 87 | 1011.4 |
| 20260507081536 | 53 | 350 | 0.0 | 3.0 | 0.00 | 0.00 | 0.00 | 86 | 1011.5 |
| 20260507080035 | 53 | 45 | 1.0 | 4.0 | 0.00 | 0.00 | 0.00 | 84 | 1011.9 |
| 20260507074535 | 53 | 0 | 2.0 | 4.0 | 0.00 | 0.00 | 0.00 | 84 | 1011.8 |
| 20260507073032 | 53 | 131 | 1.0 | 6.0 | 0.00 | 0.00 | 0.00 | 84 | 1012.1 |
| 20260507071534 | 55 | 133 | 1.0 | 8.0 | 0.00 | 0.00 | 0.00 | 83 | 1012.5 |
| 20260507070032 | 54 | 0 | 0.0 | 3.0 | 0.00 | 0.00 | 0.00 | 81 | 1012.4 |
| 20260507064531 | 54 | 0 | 0.0 | 5.0 | 0.00 | 0.00 | 0.00 | 80 | 1012.7 |
| 20260507063032 | 54 | 61 | 1.0 | 5.0 | 0.00 | 0.00 | 0.00 | 78 | 1012.7 |
| 20260507061532 | 58 | 75 | 2.0 | 7.0 | 0.00 | 0.00 | 0.00 | 72 | 1012.8 |
| 20260507060036 | 58 | 171 | 1.0 | 9.0 | 0.00 | 0.00 | 0.00 | 73 | 1013.1 |
| 20260507054532 | 58 | 0 | 0.0 | 4.0 | 0.00 | 0.00 | 0.00 | 73 | 1013.2 |
| 20260507053032 | 59 | 0 | 0.0 | 6.0 | 0.00 | 0.00 | 0.00 | 73 | 1013.4 |
| 20260507051533 | 59 | 169 | 5.0 | 16.0 | 0.00 | 0.00 | 0.00 | 73 | 1013.4 |
| 20260507050037 | 59 | 178 | 8.0 | 21.0 | 0.00 | 0.00 | 0.00 | 73 | 1013.7 |
| 20260507044535 | 60 | 180 | 7.0 | 16.0 | 0.00 | 0.00 | 0.00 | 72 | 1014.1 |
| 20260507043032 | 60 | 187 | 9.0 | 19.0 | 0.00 | 0.00 | 0.00 | 70 | 1014.2 |
| 20260507041547 | 60 | 185 | 8.0 | 21.0 | 0.00 | 0.00 | 0.00 | 71 | 1014.5 |
| 20260507040032 | 59 | 190 | 8.0 | 18.0 | 0.00 | 0.00 | 0.00 | 72 | 1014.4 |
| 20260507034531 | 60 | 177 | 10.0 | 22.0 | 0.00 | 0.00 | 0.00 | 72 | 1014.6 |